• In Hungary
  • List of Countries
  • For 7 days
  • Water Temperature
  • Satellite Maps
  • Weather Map
  • News
  • Weather Widgets
  • user-avatar
    Login

    Hourly Weather Novonikolaevskoe

    Today, 17 July, Tuesday

    Time Temperature Precipitation Wind Pressure Humidity
    00:00 +20°C° 0 mm 5 mps 738 mmHg 77%
    01:00 +20°C° 0 mm 5 mps 738 mmHg 76%
    02:00 +20°C° 0 mm 5 mps 738 mmHg 74%
    03:00 +20°C° 0 mm 5 mps 738 mmHg 73%
    04:00 +20°C° 0 mm 5 mps 738 mmHg 72%
    05:00 +20°C° 0 mm 5 mps 738 mmHg 73%
    06:00 +20°C° 0 mm 5 mps 738 mmHg 73%
    07:00 +21°C° 0 mm 5 mps 738 mmHg 73%
    08:00 +22°C° 0 mm 6 mps 738 mmHg 70%
    09:00 +24°C° 0 mm 6 mps 738 mmHg 66%
    10:00 +26°C° 0 mm 6 mps 738 mmHg 62%
    11:00 +27°C° 0 mm 6 mps 738 mmHg 61%
    12:00 +28°C° 0 mm 6 mps 738 mmHg 59%
    13:00 +29°C° 0 mm 6 mps 737 mmHg 57%
    14:00 +29°C° 0 mm 6 mps 737 mmHg 60%
    15:00 +29°C° 0 mm 5 mps 737 mmHg 62%
    16:00 +28°C° 0 mm 4 mps 737 mmHg 65%
    17:00 +28°C° 0 mm 4 mps 737 mmHg 66%
    18:00 +27°C° 0 mm 4 mps 736 mmHg 68%
    19:00 +26°C° 0 mm 4 mps 736 mmHg 69%
    20:00 +26°C° 0.3 mm 4 mps 736 mmHg 68%
    21:00 +25°C° 0.3 mm 4 mps 736 mmHg 66%
    22:00 +25°C° 0.3 mm 4 mps 736 mmHg 65%
    23:00 +23°C° 0.9 mm 5 mps 736 mmHg 71%

    Tomorrow, 18 July, Wednesday

    Time Temperature Precipitation Wind Pressure Humidity
    00:00 +21°C° 0.9 mm 5 mps 736 mmHg 76%
    01:00 +20°C° 0.9 mm 6 mps 735 mmHg 82%
    02:00 +21°C° 0.1 mm 6 mps 736 mmHg 76%
    03:00 +21°C° 0.1 mm 6 mps 736 mmHg 71%
    04:00 +22°C° 0.1 mm 6 mps 736 mmHg 66%
    05:00 +21°C° 0.4 mm 5 mps 736 mmHg 72%
    06:00 +20°C° 0.4 mm 5 mps 736 mmHg 78%
    07:00 +20°C° 0.4 mm 5 mps 736 mmHg 84%
    08:00 +21°C° 0.5 mm 4 mps 736 mmHg 83%
    09:00 +21°C° 0.5 mm 4 mps 736 mmHg 83%
    10:00 +22°C° 0.5 mm 4 mps 736 mmHg 82%
    11:00 +25°C° 0.2 mm 4 mps 736 mmHg 76%
    12:00 +27°C° 0.2 mm 5 mps 736 mmHg 70%
    13:00 +29°C° 0.2 mm 5 mps 736 mmHg 65%
    14:00 +29°C° 0.8 mm 4 mps 736 mmHg 67%
    15:00 +28°C° 0.8 mm 4 mps 736 mmHg 70%
    16:00 +28°C° 0.8 mm 4 mps 736 mmHg 73%
    17:00 +27°C° 0.1 mm 3 mps 736 mmHg 75%
    18:00 +26°C° 0.1 mm 3 mps 736 mmHg 78%
    19:00 +26°C° 0.1 mm 3 mps 736 mmHg 81%
    20:00 +24°C° 0.3 mm 3 mps 736 mmHg 83%
    21:00 +22°C° 0.3 mm 3 mps 736 mmHg 86%
    22:00 +20°C° 0.3 mm 3 mps 737 mmHg 88%
    23:00 +19°C° 0 mm 2 mps 737 mmHg 89%

    Day after tomorrow, 19 July, Thursday

    Time Temperature Precipitation Wind Pressure Humidity
    00:00 +19°C° 0 mm 2 mps 737 mmHg 90%
    01:00 +20°C° 0 mm 1 mps 737 mmHg 90%
    02:00 +19°C° 0 mm 1 mps 737 mmHg 91%
    03:00 +19°C° 0 mm 1 mps 737 mmHg 91%
    04:00 +19°C° 0 mm 1 mps 737 mmHg 92%
    05:00 +20°C° 0 mm 1 mps 737 mmHg 89%
    06:00 +21°C° 0 mm 1 mps 738 mmHg 86%
    07:00 +22°C° 0 mm 1 mps 738 mmHg 83%
    08:00 +24°C° 0 mm 1 mps 738 mmHg 77%
    09:00 +26°C° 0 mm 1 mps 738 mmHg 71%
    10:00 +28°C° 0 mm 1 mps 738 mmHg 64%
    11:00 +29°C° 0.2 mm 1 mps 738 mmHg 62%
    12:00 +30°C° 0.2 mm 1 mps 738 mmHg 60%
    13:00 +30°C° 0.2 mm 1 mps 738 mmHg 58%
    14:00 +30°C° 0.1 mm 1 mps 738 mmHg 57%
    15:00 +30°C° 0.1 mm 1 mps 738 mmHg 57%
    16:00 +30°C° 0.1 mm 1 mps 738 mmHg 57%
    17:00 +29°C° 0.2 mm 1 mps 738 mmHg 63%
    18:00 +28°C° 0.2 mm 1 mps 738 mmHg 70%
    19:00 +27°C° 0.2 mm 2 mps 738 mmHg 77%
    20:00 +25°C° 0 mm 2 mps 738 mmHg 80%
    21:00 +24°C° 0 mm 2 mps 739 mmHg 84%
    22:00 +21°C° 0 mm 2 mps 739 mmHg 87%
    23:00 +21°C° 0 mm 2 mps 739 mmHg 89%

    20 July, Friday

    Time Temperature Precipitation Wind Pressure Humidity
    00:00 +20°C° 0 mm 2 mps 738 mmHg 90%
    01:00 +19°C° 0 mm 2 mps 738 mmHg 92%
    02:00 +19°C° 0 mm 2 mps 738 mmHg 92%
    03:00 +18°C° 0 mm 2 mps 738 mmHg 92%
    04:00 +18°C° 0 mm 2 mps 738 mmHg 93%
    05:00 +19°C° 0 mm 2 mps 738 mmHg 90%
    06:00 +20°C° 0 mm 3 mps 739 mmHg 87%
    07:00 +21°C° 0 mm 3 mps 739 mmHg 84%
    08:00 +24°C° 0 mm 3 mps 739 mmHg 78%
    09:00 +25°C° 0 mm 3 mps 739 mmHg 72%
    10:00 +27°C° 0 mm 3 mps 739 mmHg 66%
    11:00 +28°C° 0 mm 3 mps 739 mmHg 62%
    12:00 +29°C° 0 mm 3 mps 739 mmHg 58%
    13:00 +29°C° 0 mm 3 mps 738 mmHg 55%
    14:00 +29°C° 0 mm 3 mps 738 mmHg 56%
    15:00 +29°C° 0 mm 3 mps 738 mmHg 56%
    16:00 +29°C° 0 mm 3 mps 738 mmHg 57%
    17:00 +28°C° 0 mm 3 mps 738 mmHg 63%
    18:00 +27°C° 0 mm 2 mps 738 mmHg 69%
    19:00 +26°C° 0 mm 2 mps 738 mmHg 75%
    20:00 +24°C° 0 mm 3 mps 738 mmHg 78%
    21:00 +22°C° 0 mm 3 mps 738 mmHg 82%
    22:00 +20°C° 0 mm 3 mps 738 mmHg 86%
    23:00 +20°C° 0 mm 3 mps 738 mmHg 86%

    21 July, Saturday

    Time Temperature Precipitation Wind Pressure Humidity
    00:00 +19°C° 0 mm 4 mps 738 mmHg 87%
    01:00 +19°C° 0 mm 4 mps 738 mmHg 87%
    02:00 +19°C° 0 mm 4 mps 738 mmHg 88%
    03:00 +18°C° 0 mm 4 mps 739 mmHg 89%
    04:00 +18°C° 0 mm 4 mps 739 mmHg 90%
    05:00 +19°C° 0 mm 4 mps 739 mmHg 86%
    06:00 +19°C° 0 mm 5 mps 739 mmHg 82%
    07:00 +20°C° 0 mm 6 mps 739 mmHg 79%
    08:00 +21°C° 0 mm 6 mps 739 mmHg 74%
    09:00 +23°C° 0 mm 6 mps 739 mmHg 68%
    10:00 +24°C° 0 mm 6 mps 740 mmHg 63%
    11:00 +26°C° 0 mm 6 mps 740 mmHg 61%
    12:00 +27°C° 0 mm 6 mps 740 mmHg 58%
    13:00 +28°C° 0 mm 6 mps 739 mmHg 55%
    14:00 +27°C° 0 mm 6 mps 740 mmHg 56%
    15:00 +27°C° 0 mm 6 mps 740 mmHg 56%
    16:00 +27°C° 0 mm 6 mps 740 mmHg 56%
    17:00 +26°C° 0 mm 5 mps 740 mmHg 60%
    18:00 +25°C° 0 mm 5 mps 740 mmHg 64%
    19:00 +22°C° 0 mm 4 mps 740 mmHg 68%
    20:00 +21°C° 0 mm 4 mps 740 mmHg 67%
    21:00 +19°C° 0 mm 4 mps 741 mmHg 67%
    22:00 +18°C° 0 mm 4 mps 741 mmHg 67%
    23:00 +17°C° 0 mm 4 mps 741 mmHg 68%

    22 July, Sunday

    Time Temperature Precipitation Wind Pressure Humidity
    00:00 +15°C° 0 mm 5 mps 741 mmHg 68%
    01:00 +15°C° 0 mm 5 mps 741 mmHg 69%
    02:00 +14°C° 0 mm 5 mps 742 mmHg 70%
    03:00 +14°C° 0 mm 5 mps 742 mmHg 71%
    04:00 +13°C° 0 mm 5 mps 742 mmHg 72%
    05:00 +14°C° 0 mm 5 mps 742 mmHg 70%
    06:00 +15°C° 0 mm 6 mps 742 mmHg 68%
    07:00 +15°C° 0 mm 6 mps 743 mmHg 66%
    08:00 +16°C° 0 mm 6 mps 743 mmHg 61%
    09:00 +19°C° 0 mm 6 mps 743 mmHg 57%
    10:00 +20°C° 0 mm 6 mps 743 mmHg 52%
    11:00 +21°C° 0 mm 6 mps 743 mmHg 51%
    12:00 +22°C° 0 mm 6 mps 743 mmHg 49%
    13:00 +23°C° 0 mm 6 mps 743 mmHg 47%
    14:00 +23°C° 0 mm 6 mps 743 mmHg 48%
    15:00 +23°C° 0 mm 6 mps 743 mmHg 48%
    16:00 +23°C° 0 mm 5 mps 742 mmHg 49%
    17:00 +22°C° 0 mm 5 mps 743 mmHg 54%
    18:00 +21°C° 0 mm 4 mps 743 mmHg 59%
    19:00 +20°C° 0 mm 4 mps 743 mmHg 63%
    20:00 +18°C° 0 mm 4 mps 743 mmHg 65%
    21:00 +15°C° 0 mm 4 mps 743 mmHg 66%
    22:00 +14°C° 0 mm 4 mps 743 mmHg 67%
    23:00 +13°C° 0 mm 4 mps 744 mmHg 67%
    Show more